Binghamton, NY

5:42 AM EST on December 15, 2019 (GMT -0500)
Binghamton Regional-Link

Weather History for KBGM - May, 2019

Change the Weather History Date:

Saturday, May 11, 2019

  Actual Average Record
Temperature  
Mean Temperature 49 °F 54 °F  
Max Temperature 57 °F 64 °F 84 °F (1953)
Min Temperature 40 °F 45 °F 28 °F (1966)
Degree Days  
Heating Degree Days 16 11  
Month to date heating degree days 109 139  
Since 1 July heating degree days 6899 6938  
Cooling Degree Days 0 0  
Month to date cooling degree days 0 0  
Year to date cooling degree days 0 4  
Moisture  
Dew Point 36 °F    
Average Humidity 63    
Maximum Humidity 83    
Minimum Humidity 43    
Precipitation  
Precipitation 0.00 in 0.10 in 0.99 in (1996)
Month to date precipitation 1.76 1.19  
Year to date precipitation 13.24 12.37  
Snow  
Snow 0.00 in 0.00 in T in (1990)
Month to date snowfall 0.0 0.1  
Since 1 July snowfall 81.4 83.4  
Snow Depth 0.00 in    
Sea Level Pressure  
Sea Level Pressure 30.07 in    
Wind  
Wind Speed 9 mph (North)    
Max Wind Speed 16 mph    
Max Gust Speed 24 mph    
Visibility 10 miles    
Events      
T = Trace of Precipitation, MM = Missing Value Source: NWS Daily Summary

Daily Weather History Graph

Daily Weather History Graph

Search for Another Location

Airport or City:

Astronomy

May. 11, 2019 Rise Set
Actual Time 5:47 AM EDT 8:13 PM EDT
Civil Twilight 5:15 AM EDT 8:45 PM EDT
Nautical Twilight 4:36 AM EDT 9:24 PM EDT
Astronomical Twilight 3:52 AM EDT 10:09 PM EDT
Moon 11:53 AM EDT (5/11) 1:53 AM EDT (5/11)
Length of Visible Light 15h 29m
Length of Day
14h 26m
Waxing Crescent, 46% of the Moon is Illuminated
May 11
Waxing Crescent
May 11
First Quarter
May 18
Full
May 26
Last Quarter
Jun 3
New

Hourly Weather History & Observations

Time (EDT) Temp. Windchill Dew Point Humidity Pressure Visibility Wind Dir Wind Speed Gust Speed Precip Events Conditions
12:43 AM 48.0 °F - 41.0 °F 77% 30.03 in 10.0 mi NNW 12.7 mph - N/A   Overcast
12:53 AM 48.0 °F - 41.0 °F 77% 30.03 in 10.0 mi NNW 8.1 mph - N/A   Overcast
1:53 AM 46.9 °F - 39.9 °F 77% 30.03 in 10.0 mi NW 6.9 mph - N/A   Overcast
2:51 AM 44.6 °F 38.4 °F 39.2 °F 81% 30.04 in 10.0 mi North 12.7 mph 23.0 mph N/A   Overcast
2:53 AM 45.0 °F 39.3 °F 39.9 °F 82% 30.04 in 10.0 mi North 11.5 mph 23.0 mph N/A   Overcast
3:25 AM 43.0 °F 36.8 °F 37.0 °F 80% 30.05 in 10.0 mi NNW 11.5 mph - N/A   Overcast
3:53 AM 43.0 °F 37.2 °F 37.0 °F 80% 30.06 in 10.0 mi NNW 10.4 mph - N/A   Overcast
4:53 AM 42.1 °F 35.7 °F 35.1 °F 76% 30.06 in 10.0 mi NNW 11.5 mph - N/A   Overcast
5:53 AM 41.0 °F 34.7 °F 34.0 °F 76% 30.07 in 10.0 mi NNW 10.4 mph - N/A   Overcast
6:53 AM 39.9 °F 33.4 °F 33.1 °F 77% 30.09 in 10.0 mi North 10.4 mph - N/A   Overcast
7:53 AM 39.9 °F 33.9 °F 32.0 °F 73% 30.11 in 10.0 mi NNW 9.2 mph - N/A   Overcast
8:53 AM 42.1 °F 37.1 °F 33.1 °F 70% 30.12 in 10.0 mi North 8.1 mph - N/A   Overcast
9:53 AM 46.0 °F 42.5 °F 35.1 °F 66% 30.12 in 10.0 mi NNW 6.9 mph - N/A   Overcast
10:53 AM 46.0 °F 41.0 °F 34.0 °F 63% 30.13 in 10.0 mi North 10.4 mph 17.3 mph N/A   Mostly Cloudy
11:20 AM 48.0 °F - 35.1 °F 61% 30.11 in 10.0 mi NE 9.2 mph - N/A   Mostly Cloudy
11:34 AM 48.9 °F - 35.1 °F 59% 30.10 in 10.0 mi North 11.5 mph - N/A   Mostly Cloudy
11:53 AM 50.0 °F - 36.0 °F 59% 30.11 in 10.0 mi NNE 8.1 mph - N/A   Scattered Clouds
12:53 PM 51.1 °F - 37.0 °F 59% 30.11 in 10.0 mi NNE 13.8 mph 18.4 mph N/A   Mostly Cloudy
1:53 PM 52.0 °F - 36.0 °F 54% 30.09 in 10.0 mi North 5.8 mph - N/A   Scattered Clouds
2:53 PM 54.0 °F - 36.0 °F 51% 30.08 in 10.0 mi NNE 4.6 mph - N/A   Partly Cloudy
3:53 PM 55.0 °F - 35.1 °F 47% 30.05 in 10.0 mi NNW 10.4 mph - N/A   Clear
4:53 PM 55.9 °F - 33.1 °F 42% 30.04 in 10.0 mi Variable 3.5 mph - N/A   Clear
5:53 PM 55.9 °F - 33.1 °F 42% 30.04 in 10.0 mi North 9.2 mph - N/A   Clear
6:53 PM 54.0 °F - 34.0 °F 47% 30.04 in 10.0 mi North 4.6 mph - N/A   Clear
7:53 PM 51.1 °F - 35.1 °F 54% 30.05 in 10.0 mi North 6.9 mph - N/A   Clear
8:53 PM 48.9 °F - 33.1 °F 54% 30.04 in 10.0 mi NNE 8.1 mph - N/A   Mostly Cloudy
9:53 PM 48.0 °F - 34.0 °F 58% 30.03 in 10.0 mi NE 9.2 mph - N/A   Mostly Cloudy
10:53 PM 48.0 °F - 34.0 °F 58% 30.01 in 10.0 mi ENE 8.1 mph - N/A   Overcast
11:53 PM 46.9 °F - 34.0 °F 61% 30.01 in 10.0 mi ENE 6.9 mph - N/A   Mostly Cloudy